This is the latest recevied weather packets stored in our database for station/object K6POO-1. If no packets are shown the sender has not sent any weather packets the latest 10 day(s).
| Time | Temp. | Humidity | Pressure | Rain* | Wind** | Luminosity | Snow |
|---|---|---|---|---|---|---|---|
| 1778004543 | 15° C | 78% | 1016.3 hPa | 0 mm | - | 478 W/m² | - |
| 1778004234 | 15° C | 79% | 1016.1 hPa | 0 mm | - | 411 W/m² | - |
| 1778003931 | 15° C | 80% | 1016.3 hPa | 0 mm | - | 568 W/m² | - |
| 1778003627 | 14.44° C | 81% | 1016.3 hPa | 0 mm | - | 451 W/m² | - |
| 1778003323 | 14.44° C | 80% | 1016.2 hPa | 0 mm | - | 283 W/m² | - |
| 1778003022 | 14.44° C | 81% | 1016.1 hPa | 0 mm | - | 386 W/m² | - |
| 1778002717 | 13.89° C | 81% | 1015.9 hPa | 0 mm | - | 351 W/m² | - |
| 1778002414 | 13.89° C | 81% | 1016 hPa | 0 mm | - | 277 W/m² | - |
| 1778002110 | 13.89° C | 82% | 1016.1 hPa | 0 mm | - | 244 W/m² | - |
| 1778001808 | 13.89° C | 83% | 1016.1 hPa | 0 mm | - | 204 W/m² | - |
| 1778001507 | 13.89° C | 83% | 1016 hPa | 0 mm | - | 197 W/m² | - |
| 1778001205 | 13.89° C | 83% | 1016.2 hPa | 0 mm | - | 220 W/m² | - |
| 1778000901 | 13.89° C | 84% | 1015.8 hPa | 0 mm | - | 242 W/m² | - |
| 1778000598 | 13.89° C | 85% | 1016.1 hPa | 0 mm | - | 193 W/m² | - |
| 1778000293 | 13.89° C | 85% | 1016 hPa | 0 mm | - | 211 W/m² | - |
| 1777999989 | 13.33° C | 85% | 1015.9 hPa | 0 mm | - | 168 W/m² | - |
| 1777999685 | 13.33° C | 86% | 1016.2 hPa | 0 mm | - | 171 W/m² | - |
| 1777999382 | 13.33° C | 86% | 1015.9 hPa | 0 mm | - | 157 W/m² | - |
| 1777999080 | 13.33° C | 87% | 1016 hPa | 0 mm | - | 110 W/m² | - |
| 1777998779 | 13.33° C | 87% | 1016.1 hPa | 0 mm | - | 112 W/m² | - |
| 1777998476 | 13.33° C | 88% | 1016 hPa | 0 mm | - | 88 W/m² | - |
| 1777998172 | 13.33° C | 88% | 1015.8 hPa | 0 mm | - | 109 W/m² | - |
| 1777997870 | 13.33° C | 87% | 1016 hPa | 0 mm | - | 106 W/m² | - |
| 1777997567 | 12.78° C | 88% | 1016 hPa | 0 mm | - | 111 W/m² | - |
| 1777997264 | 12.78° C | 88% | 1015.8 hPa | 0 mm | - | 120 W/m² | - |
* Rain latest hour (hover to see other rain measurements)
** Current wind speed in m/s (hover to see current wind gust speed)